Theta_e
348 351 351 353 352 352 345 342 341 337 338 341 343 341 341 340 344 345 347 346 345 349 350 351 350 346 347 349 346 347 347 347 343 343 344 344 343 344 344 343 342 341 340 339 339 339 339 339 339 339 339 339 341 341 343 341 341 339 339 336 339 339
344 348 351 351 348 348 351 347 344 344 343 342 341 340 346 350 346 351 343 347 350 348 347 350 349 345 348 347 347 346 346 347 346 342 342 343 343 343 343 342 341 341 340 339 338 336 337 338 337 337 339 341 342 342 342 342 342 338 338 339 339 338
341 344 349 350 351 350 347 348 349 345 346 344 345 348 348 349 347 347 348 346 345 343 347 345 345 347 348 344 346 346 345 347 346 344 342 344 344 343 342 341 341 340 339 338 335 337 336 333 337 335 337 341 342 340 342 343 342 340 338 339 340 338
341 342 344 346 351 351 350 347 348 350 350 348 349 344 346 344 344 343 342 344 346 348 345 347 343 341 343 343 345 345 344 344 342 343 344 344 343 343 342 340 339 341 340 336 336 336 335 334 335 337 339 339 339 340 341 341 339 340 339 336 337 339
340 341 341 343 344 349 351 348 346 347 350 349 347 347 348 348 346 347 347 349 346 348 346 348 343 346 344 344 344 345 347 345 345 344 344 343 337 340 341 339 340 338 336 336 335 336 337 335 336 336 337 338 339 340 340 341 339 338 340 340 341 340
340 340 342 342 341 342 347 347 347 346 347 348 347 346 346 346 347 348 349 348 348 348 347 345 346 345 344 346 344 342 342 343 344 344 341 341 336 337 335 337 341 338 336 337 336 336 336 337 335 335 335 338 338 339 339 339 340 339 340 340 342 340
338 339 341 339 341 341 341 341 347 347 344 345 346 345 344 344 345 347 350 349 347 346 345 345 345 344 344 346 343 342 341 343 343 342 343 343 336 336 335 335 338 338 337 336 335 335 334 335 335 333 335 335 337 337 338 339 340 339 340 339 342 340
338 339 341 338 340 340 341 342 342 344 347 344 344 344 343 344 346 346 348 348 348 346 345 344 345 344 344 346 344 344 343 341 340 341 343 342 336 335 334 334 336 335 335 335 333 334 332 332 334 335 334 335 336 337 338 337 340 341 341 341 342 339
338 338 340 339 339 339 341 342 343 342 340 342 344 345 345 347 346 345 347 347 347 346 346 344 344 345 345 346 344 343 342 342 341 340 342 341 338 337 335 335 334 334 334 334 333 333 332 332 334 335 333 333 334 334 337 338 339 338 339 339 341 341
337 336 338 338 339 338 338 339 340 342 346 347 343 344 346 343 347 346 345 347 347 345 345 346 344 346 344 344 342 341 342 343 343 343 342 337 335 337 336 333 334 332 329 331 330 331 331 332 331 332 332 332 333 334 337 336 337 337 338 339 341 343
335 340 335 333 337 338 339 338 338 341 346 344 346 347 345 346 344 345 347 348 346 344 346 346 345 346 345 344 343 342 343 344 345 345 343 337 338 336 336 334 332 329 327 329 330 330 331 331 332 330 332 330 331 334 335 337 336 336 336 337 339 340
337 343 341 333 338 336 337 336 339 340 341 345 348 345 345 345 345 343 345 347 346 343 341 345 344 343 345 344 344 344 344 342 341 345 343 338 336 337 337 333 334 334 330 328 331 333 334 332 331 330 331 329 330 332 333 335 335 336 335 337 337 339
337 344 339 335 334 336 337 337 339 339 340 342 342 343 343 344 345 346 346 346 345 343 343 337 339 344 343 342 342 342 341 341 341 337 341 340 337 337 337 333 330 331 334 332 330 332 332 333 333 333 333 331 332 330 330 333 335 335 334 334 335 337
341 338 339 335 337 333 336 337 338 337 339 339 338 339 342 343 343 343 343 344 342 341 340 343 339 340 343 341 341 341 339 338 340 342 343 341 336 335 334 331 328 328 329 331 330 331 331 330 331 333 333 333 334 334 332 331 333 333 334 334 335 337
343 339 338 337 336 335 337 334 333 335 336 338 336 336 337 344 343 343 342 342 341 340 340 339 340 341 342 341 340 341 339 340 341 342 342 341 337 335 335 335 333 330 331 330 329 331 331 332 333 332 334 335 332 331 333 332 332 332 332 335 336 336
341 341 339 339 339 338 336 336 335 333 336 336 333 333 334 337 337 342 342 341 336 338 341 335 339 341 343 341 339 339 341 342 340 341 341 341 341 336 334 337 337 334 329 329 330 331 332 332 334 334 337 336 335 334 332 333 332 331 331 333 334 336
340 339 339 340 338 337 336 335 335 334 332 334 333 332 332 335 335 336 336 339 339 340 339 341 342 341 341 342 339 338 342 340 338 338 338 340 341 341 340 335 338 335 334 332 330 329 332 334 335 336 336 336 335 334 332 332 332 332 331 333 333 333
340 340 339 337 336 334 334 334 332 331 332 331 333 333 332 333 333 332 335 334 336 338 341 342 342 341 340 340 340 339 334 335 334 338 338 338 337 338 340 341 338 340 337 337 334 332 334 336 333 334 336 335 336 337 332 332 333 332 331 330 332 331
341 340 337 337 336 336 335 333 332 332 330 330 332 332 332 331 331 333 334 334 334 335 335 335 337 340 342 339 338 338 336 333 338 338 339 337 337 336 337 338 337 338 339 340 339 337 337 335 333 331 331 335 335 334 338 337 334 331 331 331 330 331
339 337 336 334 331 328 327 325 326 327 326 328 329 330 332 331 332 330 332 331 333 334 332 333 334 335 336 337 338 338 338 338 338 336 336 337 337 336 336 334 335 335 336 336 338 338 338 335 333 332 331 332 331 333 333 334 336 333 334 333 333 333
336 336 332 329 328 325 324 324 325 325 324 326 327 330 329 331 330 329 330 329 330 330 331 331 331 331 332 333 333 334 336 335 336 336 336 337 338 338 337 336 334 335 334 333 334 337 337 335 330 330 333 332 333 336 334 336 336 336 333 333 333 333
335 333 331 330 328 326 326 324 324 324 324 322 322 324 326 329 328 329 328 328 328 328 329 330 330 331 330 330 331 331 332 332 333 335 336 337 338 336 336 336 334 333 334 331 331 334 335 333 329 326 327 327 329 333 331 332 333 334 334 334 335 334
333 332 331 331 328 326 326 328 326 324 323 323 328 329 326 325 326 324 327 326 326 327 326 328 329 329 329 328 330 330 331 331 333 334 336 337 336 335 337 335 335 334 332 332 332 334 337 335 328 332 331 326 324 322 327 328 332 331 331 331 334 335
333 332 331 331 327 329 329 331 332 330 329 326 324 325 325 325 324 324 324 326 327 328 327 328 327 327 328 327 329 329 330 330 331 334 336 333 333 332 334 333 335 333 332 329 326 332 334 334 332 330 323 324 325 324 319 323 326 329 333 333 334 335
332 331 330 330 330 331 329 328 328 329 327 325 324 322 323 322 324 324 324 326 326 328 327 326 327 327 325 326 326 328 328 330 330 330 330 329 330 331 332 334 332 331 331 330 326 329 330 334 333 335 327 323 322 320 320 324 326 327 332 330 332 334
330 331 329 330 331 327 324 324 322 320 317 318 319 319 319 320 321 322 321 325 326 327 326 326 326 326 326 326 326 326 328 327 329 328 328 327 327 326 326 327 330 332 331 331 327 326 328 333 333 332 333 330 328 320 322 325 323 319 331 332 331 330
330 330 330 330 330 326 325 323 322 320 319 318 317 319 324 324 324 322 324 325 325 328 326 327 327 327 326 326 326 326 327 326 326 327 327 326 326 326 323 324 327 326 327 328 328 327 326 326 329 331 331 332 330 329 329 324 320 322 317 328 328 327
329 329 329 330 329 326 324 323 322 320 319 318 319 320 322 325 326 325 324 325 326 326 327 326 326 325 326 326 326 326 326 327 325 325 324 325 325 325 326 326 327 327 326 325 326 324 323 326 325 326 329 329 329 328 328 328 328 324 321 318 322 326
329 329 329 330 328 326 325 324 322 321 318 319 322 321 321 323 322 325 325 325 325 325 326 327 325 324 324 324 325 325 326 325 323 322 322 322 324 325 326 326 326 326 325 324 324 324 323 321 323 322 323 324 324 325 325 326 328 328 322 320 320 321
328 327 329 330 328 326 326 326 322 321 320 319 319 320 320 321 323 324 324 325 324 324 324 323 323 323 321 319 320 321 320 320 320 319 318 319 320 321 322 323 324 325 326 325 324 324 322 322 322 322 322 322 320 320 321 322 323 322 324 325 317 317
327 326 328 328 327 326 326 327 323 322 322 321 320 320 320 321 321 322 323 324 324 323 323 321 321 322 320 320 321 321 320 320 320 319 317 317 319 317 319 320 320 321 322 322 322 323 322 322 322 321 321 320 318 318 318 317 318 320 320 320 318 317
326 326 328 328 327 326 326 326 325 326 323 323 322 320 320 320 322 322 322 322 323 323 322 321 320 319 321 322 321 320 320 320 319 319 317 318 319 319 319 319 319 319 319 320 320 319 320 319 320 319 319 319 319 319 319 318 318 318 318 318 318 317
325 325 327 327 326 327 327 327 325 327 325 325 323 321 320 321 322 320 321 321 322 321 321 320 318 319 320 322 321 321 320 318 318 319 318 317 318 318 318 318 318 319 319 318 318 318 316 318 317 317 316 318 317 318 317 318 318 318 318 318 317 314
324 326 327 327 327 326 327 327 327 328 327 326 325 323 321 321 322 320 321 321 322 321 321 322 320 319 321 321 321 322 321 320 319 319 318 319 319 318 319 316 317 317 317 317 318 318 317 318 317 316 316 315 316 314 315 317 317 317 316 314 313 314
324 326 326 326 327 326 325 327 328 328 328 328 327 324 321 322 324 321 322 322 321 322 321 322 322 321 321 322 323 322 321 320 319 319 318 318 317 318 318 317 318 318 318 317 317 317 316 317 316 315 315 315 314 315 314 313 313 315 314 315 314 314
324 326 326 325 325 326 326 327 329 329 329 329 327 326 324 323 324 324 323 322 321 323 322 324 324 323 322 323 322 322 321 320 319 319 319 318 317 316 317 316 316 317 316 316 317 317 316 317 316 315 315 315 314 313 314 312 313 313 312 314 314 314
324 326 324 325 326 326 327 327 328 329 329 329 328 327 325 326 326 326 324 323 322 323 324 324 324 325 323 323 323 323 322 321 320 319 319 318 317 317 317 317 316 316 316 316 316 315 316 316 315 316 314 314 314 314 313 314 313 313 314 314 314 313
Wind_Speed
7 7 7 7 5 8 12 17 16 13 11 7 5 4 4 1 4 7 6 5 5 6 6 6 7 7 8 7 7 4 7 8 9 10 11 11 11 11 11 11 10 9 9 9 8 7 5 5 4 1 3 6 9 8 5 3 3 2 1 4 3 7
6 7 7 6 6 6 7 10 11 11 10 8 7 4 6 6 6 5 1 4 4 3 6 4 6 7 7 6 6 6 6 6 6 8 9 9 10 11 11 11 11 11 10 9 11 7 6 5 5 2 2 6 9 4 3 3 3 3 2 3 2 10
8 7 7 7 5 5 7 5 7 10 9 12 11 10 8 7 8 7 5 3 3 5 6 8 6 5 2 6 4 9 7 6 5 6 7 8 9 8 9 9 8 8 8 10 9 5 5 6 5 6 6 7 5 3 3 4 4 2 3 4 4 11
7 8 6 5 5 6 5 6 5 6 7 6 8 8 8 7 7 8 6 5 5 5 4 3 5 8 4 6 5 8 7 6 6 5 8 8 9 10 12 11 9 8 6 7 7 5 6 4 4 5 4 4 4 3 4 4 4 3 3 3 5 11
7 6 7 5 5 5 6 5 6 5 5 5 6 5 5 6 6 4 6 5 5 3 4 3 7 6 7 6 7 6 6 6 6 7 9 6 7 8 9 8 7 7 6 7 6 5 4 4 4 4 3 3 3 3 3 4 3 3 3 3 8 9
6 7 6 4 5 5 5 5 5 5 5 4 5 5 5 5 5 5 5 5 3 4 3 4 3 4 3 4 4 5 5 5 5 5 7 5 5 5 6 5 6 7 5 5 5 4 5 4 4 4 4 3 4 4 4 4 3 2 2 3 9 8
6 6 6 6 5 4 5 5 4 5 7 5 4 6 6 5 6 6 4 4 4 4 3 3 4 4 3 4 4 4 5 5 5 5 5 5 5 4 5 5 5 5 4 5 5 5 5 5 4 4 4 4 3 4 4 4 4 3 3 3 9 11
6 6 5 5 5 4 4 3 4 5 5 5 6 5 5 5 5 6 6 5 4 3 3 4 4 4 4 4 4 5 4 4 5 5 5 5 4 4 4 2 3 3 4 5 6 6 6 6 5 4 4 4 4 5 4 4 4 3 3 3 7 10
6 6 5 3 4 3 4 4 4 4 4 5 5 4 3 4 5 5 6 6 5 4 4 4 4 4 3 4 3 4 4 5 5 6 4 4 3 3 3 3 4 4 4 5 5 6 6 6 5 5 5 5 5 4 4 4 4 4 4 3 3 11
6 5 5 4 2 2 2 3 4 3 3 5 3 3 4 4 3 4 4 5 5 5 4 3 4 4 4 3 2 3 5 5 5 3 3 3 2 1 1 3 4 4 3 5 5 5 6 6 7 5 6 6 5 6 4 5 5 5 3 3 2 9
6 3 4 4 3 2 2 2 2 3 4 3 3 2 2 2 3 3 3 3 4 5 3 4 4 5 3 4 4 5 5 4 5 4 4 3 1 2 2 1 2 3 5 4 5 6 6 7 6 7 6 7 6 6 5 5 4 4 4 4 4 4
6 4 2 3 3 3 2 1 1 1 2 3 4 3 2 1 1 2 2 4 2 3 2 1 3 4 4 4 4 5 4 5 5 3 4 3 4 3 2 3 3 3 4 5 4 4 6 6 6 6 6 7 7 7 7 6 6 6 5 4 3 4
6 5 4 2 3 2 2 2 1 0 1 1 3 3 4 3 1 1 1 2 3 2 2 2 5 4 2 2 3 3 3 4 5 5 5 5 4 4 4 4 4 4 3 4 5 5 5 5 5 5 5 5 5 7 7 7 7 6 5 5 5 4
4 5 3 3 2 3 3 2 2 2 1 1 1 2 3 3 3 2 2 2 2 3 4 2 4 4 2 3 3 3 3 4 5 6 4 4 5 5 5 6 8 7 7 6 6 5 5 6 5 5 5 5 5 6 7 7 7 7 6 6 5 4
3 3 4 3 3 2 2 2 3 3 2 1 1 1 2 4 4 4 3 3 3 1 4 5 4 4 4 3 3 3 3 4 4 6 5 5 5 6 5 6 6 7 7 7 7 6 6 5 5 6 4 4 6 6 6 7 6 6 6 6 5 5
5 4 4 3 3 2 3 2 2 2 2 0 0 2 2 2 3 4 5 4 6 4 5 6 5 4 3 3 4 3 3 2 4 5 6 5 5 5 5 5 5 6 6 7 7 6 5 4 4 5 4 5 5 6 6 7 7 7 7 6 6 6
6 5 4 4 4 4 3 3 2 3 2 2 2 1 2 2 2 2 2 4 6 5 2 2 3 3 3 3 4 4 2 2 1 4 5 5 4 3 3 5 5 6 6 5 6 6 4 2 4 4 4 5 5 5 6 6 6 6 7 6 5 6
5 5 5 5 4 4 3 3 3 3 2 2 2 2 2 2 2 2 2 3 4 5 4 5 5 5 4 3 2 3 5 4 6 5 4 4 4 3 4 4 4 4 5 5 5 5 4 1 3 4 4 5 5 4 6 6 6 6 6 6 7 6
6 6 5 5 5 3 3 2 2 3 4 3 2 2 2 2 3 3 3 3 3 2 2 3 3 4 3 4 3 3 5 7 5 4 4 6 6 6 6 5 5 4 4 4 2 2 1 1 1 4 5 5 6 6 5 6 6 6 7 8 7 7
7 7 6 6 5 4 3 3 3 3 3 2 2 3 2 3 2 3 3 2 2 0 1 1 2 2 2 2 3 3 3 5 5 5 5 5 6 7 7 7 6 7 6 5 4 3 3 3 2 3 3 4 7 7 9 7 7 8 7 7 7 6
7 7 7 6 5 4 4 3 3 3 3 3 2 3 2 3 3 4 3 3 2 2 2 1 0 1 1 1 1 2 4 4 4 4 4 5 4 5 6 5 6 6 7 7 6 5 4 3 3 2 2 4 4 5 9 10 9 7 8 7 7 7
8 8 7 6 5 4 3 3 3 4 3 4 4 3 3 3 3 3 3 3 2 2 2 2 2 1 1 1 1 2 2 2 3 4 2 2 3 3 5 5 6 5 6 7 6 6 5 4 2 4 3 1 4 5 6 8 9 8 8 8 7 7
8 8 8 7 5 5 4 2 2 4 2 4 4 4 4 4 3 4 3 3 3 2 2 3 3 3 2 1 1 1 2 2 2 3 4 4 4 3 2 4 6 6 5 5 5 6 6 5 3 3 2 2 3 3 4 5 5 8 8 9 7 7
9 8 8 7 6 5 5 4 3 4 3 2 4 4 4 4 4 4 4 4 4 3 3 3 3 3 3 3 2 2 1 1 3 4 3 4 4 4 3 4 2 4 4 4 5 4 4 6 4 4 4 4 0 1 2 3 3 5 6 8 9 9
9 9 8 8 7 6 7 6 5 5 4 5 4 4 4 4 4 4 4 4 4 4 4 4 4 3 4 3 3 2 3 3 3 2 1 3 4 4 2 3 4 4 3 3 4 2 4 3 4 2 2 1 2 4 2 1 2 3 2 5 5 7
9 9 8 9 8 7 7 7 7 6 6 5 5 4 4 4 4 3 4 4 5 4 4 4 3 4 4 4 3 3 3 3 4 3 3 3 4 4 3 3 3 2 2 1 4 5 4 3 1 0 1 2 1 2 3 1 2 1 2 2 4 4
10 9 8 9 9 8 8 8 8 7 6 6 5 4 3 4 4 4 4 4 4 4 4 4 4 4 4 4 4 3 3 3 4 3 4 4 4 3 3 3 2 2 2 2 4 1 4 4 4 3 1 1 2 2 3 3 3 3 4 1 5 7
10 10 9 9 10 9 8 8 8 7 6 5 4 5 5 5 4 4 5 5 5 4 4 5 4 4 4 4 4 4 4 4 4 4 4 4 4 4 4 4 4 3 3 3 3 4 3 3 1 3 2 2 1 0 2 3 4 3 4 4 3 3
11 11 11 11 10 10 9 8 8 7 6 5 5 5 5 5 5 5 5 4 4 5 5 4 4 5 5 5 4 4 4 4 4 4 4 5 5 6 5 5 4 4 4 4 3 2 2 2 2 3 2 1 2 2 2 3 1 2 4 5 4 6
13 11 10 12 11 11 10 8 9 8 8 7 6 5 5 6 5 5 6 5 5 4 5 5 5 6 6 6 6 6 5 5 5 5 5 6 6 6 5 5 5 5 5 5 4 4 4 2 2 1 2 2 3 3 4 3 3 2 3 5 4 5
13 11 11 12 12 12 11 10 9 9 9 8 8 6 6 6 6 6 6 6 5 5 5 6 6 6 6 6 6 6 5 6 5 5 5 5 4 5 5 5 5 5 5 4 4 5 4 3 2 2 1 2 2 2 3 4 4 4 5 5 5 6
13 13 11 12 13 12 11 11 10 10 10 9 9 7 7 7 7 7 6 6 5 5 5 6 6 6 6 6 6 6 6 6 5 5 5 4 4 5 5 4 4 4 4 5 4 3 4 4 3 3 2 2 2 1 1 2 2 2 3 4 5 6
15 15 13 13 13 13 12 11 10 10 10 8 9 8 7 6 6 6 6 6 6 6 6 6 6 6 7 7 6 6 6 5 5 5 5 5 5 5 5 5 5 5 5 5 4 4 4 4 3 2 2 1 1 1 1 1 2 2 3 4 5 6
15 15 13 13 13 13 12 11 10 9 8 8 8 8 7 7 7 6 5 6 6 6 6 6 7 7 7 7 6 6 6 6 6 6 5 5 5 5 5 5 5 5 5 5 5 5 5 4 3 3 1 0 1 0 1 1 2 2 3 3 4 4
14 14 14 14 13 13 11 11 9 8 8 7 7 7 7 7 8 7 6 7 6 6 6 6 7 7 8 6 6 6 6 7 7 6 6 5 5 5 4 4 5 5 4 4 4 3 4 3 3 3 2 1 1 0 1 1 2 3 3 3 4 4
13 13 13 13 13 13 12 10 10 10 9 8 7 7 7 7 7 8 7 7 7 7 6 7 7 8 8 7 7 7 7 7 7 7 6 6 5 5 4 4 4 4 4 3 4 4 3 3 3 3 2 1 1 1 1 1 3 1 3 3 4 4
11 10 11 11 11 11 10 10 10 10 9 9 9 9 8 9 9 8 8 8 7 8 7 7 7 8 9 8 8 8 7 8 7 7 6 6 6 6 5 4 4 4 4 4 3 4 3 3 3 1 2 2 3 1 1 2 2 3 3 3 4 4
Wind_Direction
145 142 134 124 134 141 149 159 154 177 204 194 174 152 132 116 182 177 179 160 159 185 158 183 158 182 157 171 163 146 151 140 141 156 147 146 148 146 144 144 142 138 139 137 134 124 115 113 93 99 179 199 180 199 197 182 189 152 171 124 207 98
141 140 130 149 142 151 141 162 162 166 183 179 169 214 174 180 175 171 175 166 186 213 197 145 188 161 172 157 163 148 157 153 141 143 141 147 151 154 151 147 148 148 145 148 152 175 159 129 115 94 235 194 205 205 202 177 209 176 153 129 147 108
147 140 143 138 142 138 150 152 153 157 160 173 181 190 182 192 199 147 200 195 169 217 228 155 205 152 160 148 137 163 165 154 143 133 134 140 151 156 151 141 141 145 148 160 189 200 193 175 168 157 211 214 226 202 186 176 194 149 205 90 109 116
157 154 155 148 147 152 155 161 147 155 156 163 170 181 192 181 220 156 176 209 199 210 184 189 88 152 148 184 161 177 160 143 150 164 151 158 151 154 143 146 145 138 168 195 218 204 209 186 189 192 206 220 219 187 198 178 206 169 169 157 110 125
158 158 159 161 167 154 156 169 156 152 146 165 162 166 182 188 185 166 173 184 202 185 179 196 166 170 201 165 163 179 170 184 181 184 182 194 181 158 177 171 159 176 204 218 226 215 241 190 197 200 215 225 232 214 195 190 193 186 153 148 105 133
158 157 154 178 177 153 166 159 159 157 145 174 162 170 180 197 166 174 185 191 182 186 182 179 171 191 179 169 177 173 183 184 188 201 187 203 213 182 198 177 176 183 209 221 221 214 213 219 204 212 209 198 226 213 206 192 182 197 150 145 121 140
165 153 169 174 159 166 185 168 166 169 158 165 190 172 192 193 178 173 192 191 190 195 181 171 168 186 185 188 187 185 196 179 196 206 195 219 217 188 206 185 185 191 198 220 224 211 203 203 237 204 206 217 221 229 209 199 187 189 160 169 126 150
154 159 170 178 164 170 173 174 168 168 184 160 179 173 181 192 174 176 193 191 207 200 180 187 176 179 187 200 193 195 199 194 202 206 200 216 221 210 211 199 188 191 205 212 220 218 221 200 199 228 206 218 204 222 229 196 198 196 164 189 138 156
149 169 154 179 168 173 161 178 175 188 187 168 179 182 172 158 181 178 189 201 195 197 200 200 189 180 192 186 192 195 203 209 215 207 192 217 220 204 201 177 174 177 198 217 224 223 221 216 195 205 216 212 229 216 214 208 205 206 189 162 217 146
162 163 147 167 145 161 176 193 189 183 157 172 171 167 162 179 169 171 168 192 193 199 208 209 175 198 184 162 176 214 212 213 222 218 199 206 225 228 215 175 188 188 209 207 221 226 237 217 214 209 215 218 209 233 199 212 205 211 179 193 199 137
149 152 159 162 149 144 169 217 194 171 180 157 128 156 175 168 168 169 154 173 187 201 218 170 191 203 155 155 194 206 220 224 218 211 205 178 134 223 149 159 226 181 210 215 213 217 225 222 227 211 202 222 215 226 214 218 217 213 204 198 195 177
140 155 226 146 150 154 187 176 174 187 186 136 155 154 148 164 182 154 162 153 165 190 167 82 209 210 185 185 206 214 208 215 216 237 207 178 184 205 166 154 149 151 188 208 228 227 230 232 219 230 206 213 213 217 222 210 219 212 227 210 215 204
145 153 184 185 137 150 143 151 119 164 175 186 185 161 166 166 157 101 106 152 161 158 104 126 261 233 204 210 231 224 223 217 207 216 225 189 179 192 164 155 173 182 154 214 199 220 234 236 232 234 236 215 210 222 227 218 213 221 220 224 222 225
149 164 183 168 150 180 142 127 147 132 114 211 217 190 156 146 151 139 123 93 184 155 172 165 195 236 200 167 222 234 215 216 215 206 201 189 191 195 183 177 177 184 180 192 208 202 221 234 239 235 226 235 222 233 228 226 219 217 226 237 241 240
155 171 170 155 190 136 144 151 155 156 142 183 150 201 151 140 156 161 147 138 96 172 169 187 195 231 225 203 212 236 205 211 210 204 193 190 204 198 195 191 182 193 176 190 198 207 219 237 247 246 238 228 234 223 233 245 237 233 218 220 236 235
166 168 180 154 150 127 125 143 93 96 112 97 187 147 142 152 151 144 153 159 169 234 205 207 198 206 242 196 198 214 251 213 206 204 205 197 206 206 202 204 197 213 185 195 197 201 225 231 247 260 260 256 246 242 224 222 227 229 231 224 222 227
173 166 162 151 140 126 137 130 121 98 96 143 127 100 116 141 137 140 139 127 139 158 174 170 183 192 220 209 205 209 187 214 247 229 209 212 216 213 208 211 210 213 216 209 205 206 201 238 258 270 275 254 261 261 246 228 220 223 233 213 228 216
163 162 158 148 141 149 145 133 142 129 108 110 103 107 100 107 105 104 111 119 135 148 165 173 188 188 203 229 226 206 150 241 212 217 203 196 208 217 228 236 220 224 222 220 212 210 200 188 267 271 277 273 261 261 265 255 220 221 229 214 211 227
156 150 145 139 134 127 126 135 111 146 143 147 134 98 99 95 88 104 115 104 92 113 133 147 153 162 175 190 204 209 177 212 194 177 201 199 196 200 213 223 222 230 249 252 226 205 196 184 289 308 292 314 297 274 275 267 254 218 219 223 217 210
161 153 149 156 166 176 180 171 155 159 150 118 112 114 99 108 112 93 74 73 94 222 128 164 142 111 158 170 179 183 190 184 182 189 201 201 201 195 204 211 222 228 224 236 241 219 198 195 187 231 275 303 286 292 275 266 251 242 235 223 223 225
161 161 172 175 180 183 177 163 161 162 141 143 124 114 102 75 72 74 71 95 100 93 95 85 268 192 163 209 202 179 173 179 171 187 203 215 205 196 192 199 212 217 222 222 221 210 203 197 217 241 206 234 276 288 292 279 265 247 238 231 226 223
166 170 180 183 172 172 175 176 169 155 148 141 147 157 122 112 89 88 88 73 68 66 73 95 81 69 199 201 177 189 202 180 209 169 196 192 199 178 197 197 195 199 216 214 221 207 197 178 214 240 226 215 253 248 250 276 273 264 244 233 228 227
175 174 178 182 179 168 158 138 187 119 152 116 63 43 70 83 104 105 86 86 72 66 92 95 95 90 92 115 105 175 167 189 190 146 151 146 147 152 193 212 198 206 197 210 231 196 187 208 195 209 216 236 226 238 218 235 257 285 275 255 240 219
173 179 177 180 185 151 142 133 105 119 91 67 102 104 98 109 103 107 98 66 73 80 73 79 92 112 105 100 114 120 110 160 130 133 144 132 127 123 171 181 247 222 201 201 218 178 185 192 219 191 212 220 220 267 204 229 247 241 271 260 244 253
173 178 179 173 169 145 140 143 134 129 124 112 122 135 145 130 125 110 108 107 95 88 93 87 82 67 89 106 115 93 92 92 86 81 124 125 106 100 94 62 126 168 201 230 200 168 180 187 203 223 302 190 187 217 224 131 286 265 234 269 259 233
173 176 179 175 170 166 169 160 159 164 162 159 152 161 160 143 145 141 105 111 111 98 86 88 84 85 84 99 108 124 118 111 95 90 80 86 91 96 114 132 94 93 138 201 227 177 155 153 142 225 308 294 353 321 310 8 300 254 230 227 280 324
174 174 178 180 177 180 177 172 174 177 168 163 153 145 112 123 124 110 117 120 109 112 111 98 88 87 89 90 101 106 109 99 104 95 78 68 69 64 64 52 46 86 74 55 357 230 157 151 146 120 112 36 331 273 280 272 278 310 288 319 329 321
176 175 176 181 184 190 184 179 180 183 168 167 155 132 140 130 117 119 118 128 128 126 119 107 104 99 102 103 99 102 105 99 106 108 112 100 98 93 93 80 58 50 33 27 31 26 38 34 327 92 65 45 16 17 296 270 271 296 297 307 273 211
179 178 176 178 186 192 193 183 183 180 172 162 145 141 146 141 136 130 130 128 127 118 109 99 95 102 104 105 105 97 93 91 85 96 104 104 94 90 81 76 82 67 59 59 50 36 13 35 18 31 339 4 300 285 255 223 213 228 280 276 271 256
183 182 178 179 187 193 196 189 189 185 176 163 157 149 158 146 146 151 139 138 137 138 127 121 115 113 113 107 103 104 99 94 88 74 72 82 94 93 93 92 81 79 82 89 75 54 52 61 59 49 329 324 292 323 302 249 222 302 264 230 274 284
185 185 182 182 188 193 196 195 194 188 182 169 164 162 164 160 158 165 153 153 154 141 139 127 127 125 119 117 112 104 104 104 98 96 96 100 95 98 99 98 90 86 82 79 83 84 81 67 66 79 19 17 20 359 340 332 332 324 319 301 289 278
184 188 184 185 188 195 198 198 200 192 186 176 168 172 179 173 171 171 162 160 157 151 148 141 143 137 136 129 125 119 117 115 109 106 101 97 103 104 105 102 102 99 95 90 91 93 89 89 83 85 61 38 30 1 349 324 358 308 294 298 296 291
186 190 187 186 190 195 199 200 202 197 192 181 179 179 183 183 180 179 171 169 165 167 158 161 157 154 148 148 137 138 137 126 119 111 106 103 95 95 97 95 97 99 92 86 80 82 84 73 58 39 82 71 352 357 8 1 306 311 308 302 286 284
192 190 186 187 192 196 202 203 203 203 196 187 185 183 187 188 185 192 180 175 179 176 173 172 165 164 158 161 152 141 136 127 121 122 118 110 110 109 109 108 106 97 96 91 92 94 93 91 86 80 31 59 31 45 354 319 312 288 296 299 300 306
192 189 189 188 190 197 201 203 205 206 203 199 190 189 194 192 187 191 188 180 187 181 181 176 170 164 162 164 146 142 138 136 135 130 126 120 115 111 104 100 98 97 90 92 95 83 82 85 87 79 55 6 141 186 313 287 284 289 287 288 288 299
194 186 189 189 193 195 198 198 202 202 202 200 200 196 198 194 189 192 191 189 188 185 184 173 169 161 169 165 158 150 151 146 145 144 139 137 133 121 119 113 105 102 100 100 102 104 106 96 72 56 37 358 277 44 311 330 280 303 297 304 287 273
192 186 189 191 194 194 197 200 201 203 203 201 200 201 197 189 188 188 194 197 195 188 179 176 166 165 172 171 167 165 160 155 156 154 150 146 138 133 136 124 112 112 106 101 89 78 62 68 82 51 52 357 339 351 20 329 305 307 297 286 283 288